Prescott, AZ

12:41 PM MST on November 13, 2019 (GMT -0700)
Love

Weather History for KPRC - September, 2019

Change the Weather History Date:

Saturday, September 7, 2019

  Actual Average Record
Temperature  
Mean Temperature 77 °F 70 °F  
Max Temperature 90 °F 84 °F 95 °F (1977)
Min Temperature 64 °F 56 °F 46 °F (1970)
Degree Days  
Heating Degree Days 0    
Month to date heating degree days 0  
Since 1 July heating degree days 0  
Cooling Degree Days 12    
Month to date cooling degree days 93  
Year to date cooling degree days 1068  
Growing Degree Days 27 (Base 50)    
Moisture  
Dew Point 52 °F    
Average Humidity 48    
Maximum Humidity 70    
Minimum Humidity 23    
Precipitation  
Precipitation 0.99 in 0.05 in 1.23 in (2002)
Month to date precipitation 1.20 0.41  
Year to date precipitation 9.31 10.07  
Sea Level Pressure  
Sea Level Pressure 29.93 in    
Wind  
Wind Speed 6 mph ()    
Max Wind Speed 28 mph    
Max Gust Speed 34 mph    
Visibility 9.7 miles    
Events Rain , Thunderstorm    
T = Trace of Precipitation, MM = Missing Value Source: Averaged Metar Reports

Daily Weather History Graph

Daily Weather History Graph

Search for Another Location

Airport or City:

Astronomy

Sep. 07, 2019 Rise Set
Actual Time 6:06 AM MST 6:47 PM MST
Civil Twilight 5:41 AM MST 7:13 PM MST
Nautical Twilight 5:11 AM MST 7:43 PM MST
Astronomical Twilight 4:40 AM MST 8:14 PM MST
Moon 2:55 PM MST (9/7) 12:12 AM MST (9/7)
Length of Visible Light 13h 32m
Length of Day
12h 41m
Waxing Gibbous, 67% of the Moon is Illuminated
Sep 7
Waxing Gibbous
Sep 13
Full
Sep 21
Last Quarter
Sep 28
New
Oct 5
First Quarter

Hourly Weather History & Observations

Time (MST) Temp. Dew Point Humidity Pressure Visibility Wind Dir Wind Speed Gust Speed Precip Events Conditions
12:53 AM 71.1 °F 51.1 °F 49% 29.92 in 10.0 mi South 5.8 mph - N/A   Clear
1:53 AM 68.0 °F 53.1 °F 59% 29.92 in 10.0 mi South 3.5 mph - N/A   Clear
2:53 AM 68.0 °F 53.1 °F 59% 29.91 in 10.0 mi Calm Calm - N/A   Clear
3:53 AM 66.9 °F 53.1 °F 61% 29.91 in 10.0 mi South 3.5 mph - N/A   Clear
4:53 AM 66.0 °F 53.1 °F 63% 29.91 in 10.0 mi SW 3.5 mph - N/A   Clear
5:53 AM 64.0 °F 54.0 °F 70% 29.93 in 10.0 mi SSW 5.8 mph - N/A   Clear
6:53 AM 66.0 °F 53.1 °F 63% 29.96 in 10.0 mi WSW 3.5 mph - N/A   Clear
7:53 AM 71.1 °F 55.0 °F 57% 29.96 in 10.0 mi South 4.6 mph - N/A   Clear
8:53 AM 81.0 °F 52.0 °F 36% 29.94 in 10.0 mi Variable 3.5 mph - N/A   Clear
9:53 AM 84.0 °F 48.0 °F 28% 29.93 in 10.0 mi Calm Calm - N/A   Clear
10:53 AM 87.1 °F 46.9 °F 25% 29.90 in 10.0 mi Variable 3.5 mph - N/A   Mostly Cloudy
11:53 AM 84.9 °F 48.0 °F 28% 29.89 in 10.0 mi South 10.4 mph - N/A Thunderstorm Mostly Cloudy
12:08 PM 87.1 °F 48.0 °F 26% 30.16 in 10.0 mi SSE 10.4 mph - N/A Thunderstorm Mostly Cloudy
12:53 PM 90.0 °F 46.9 °F 23% 29.85 in 10.0 mi Variable 5.8 mph - N/A Thunderstorm Mostly Cloudy
1:40 PM 84.9 °F 50.0 °F 30% 30.14 in 10.0 mi SSW 9.2 mph 18.4 mph N/A Thunderstorm Thunderstorm
1:53 PM 82.0 °F 51.1 °F 34% 29.88 in 10.0 mi South 18.4 mph 26.5 mph N/A Rain , Thunderstorm Light Thunderstorms and Rain
2:11 PM 75.0 °F 54.0 °F 48% 30.16 in 1.2 mi North - - 0.15 in Rain , Thunderstorm Thunderstorms and Rain
2:18 PM 73.0 °F 53.1 °F 49% 30.16 in 10.0 mi East 13.8 mph 32.2 mph 0.40 in Rain , Thunderstorm Thunderstorms and Rain
2:53 PM 78.1 °F 54.0 °F 43% 29.87 in 10.0 mi North 6.9 mph - N/A Rain , Thunderstorm Light Thunderstorms and Rain
3:53 PM 77.0 °F 59.0 °F 54% 29.86 in 10.0 mi NNE 5.8 mph - N/A Thunderstorm Thunderstorm
4:53 PM 72.0 °F 57.0 °F 59% 29.88 in 10.0 mi SSE 16.1 mph 27.6 mph N/A Rain , Thunderstorm Light Thunderstorms and Rain
5:53 PM 69.1 °F 55.9 °F 63% 29.90 in 10.0 mi SE 19.6 mph 25.3 mph N/A Rain , Thunderstorm Light Thunderstorms and Rain
6:53 PM 70.0 °F 53.1 °F 55% 29.88 in 10.0 mi SW 8.1 mph - 0.00 in   Scattered Clouds
7:53 PM 71.1 °F 50.0 °F 47% 29.85 in 10.0 mi SSW 10.4 mph - N/A   Clear
8:53 PM 68.0 °F 53.1 °F 59% 29.85 in 10.0 mi SSW 5.8 mph - N/A   Clear
9:53 PM 68.0 °F 52.0 °F 56% 29.83 in 10.0 mi South 6.9 mph - N/A   Clear
10:53 PM 66.9 °F 51.1 °F 57% 29.82 in 10.0 mi SSW 8.1 mph - N/A   Clear
11:53 PM 66.9 °F 46.9 °F 49% 29.81 in 10.0 mi South 6.9 mph - N/A   Clear